Starlink 30971

operational
NORAD ID: 58443 Int'l Des: 2023-183 Owner: SPXS Country: US Constellation: starlink
LEOCIRCULAR

Über Starlink 30971

Beschreibung wird geladen...

Live-Position

3D-Globus wird geladen...

Nächste Überflüge

Höhenverlauf

Altitude vs Time

uPlot chart will show altitude changes over time

Zweizeiliger Elementsatz

1 58443U 23183G 25353.70427779 -.00001347 00000-0 -84674-4 0 9992
2 58443 43.0035 117.8236 0001601 261.9702 98.0959 15.02531158114685
Epoch: 19. Dez. 2025 • Age: 20 hours

Aktueller Status

Höhe 559.8 km
Geschwindigkeit 7.59 km/s
Subsatellitenpunkt 26.20°N, 17.67°W
Startdatum 28. Nov. 2023
Alter 2 years
Typ internet

Technische Details

Klassifizierung Payload
Masse 730.00 kg
Trockenmasse 700.00 kg
Gesamtmasse 730.00 kg
Länge 0.30 m
Durchmesser 4.10 m
Spannweite 29.00 m
Form Box + pan
Hersteller SPXS
Bus-Typ Starlink V2M
Phasenstatus In Orbit
Besitzer/Staat SPXS/US

Große Konstellationen

Loading constellations...